This demonstration page uses our WeatherBlox Daily Observations layout. Learn more.

36.17497, -115.13722

Hourly Observations for September 28, 2019

Temp ( °F °C ) Dew Point ( °F °C ) Humidity (%) Winds ( mph kmh ) Pressure ( in mb ) Visibility ( mi km ) Precip ( " mm )
12:53 am 00:53 Clear 77 25 54 12.2 45 45 SSE 16 26 29.62 1003 10 16.09344 0 0
1:53 am 01:53 Clear 75 23.9 54 12.2 48 48 SE 12 19 29.59 1002 10 16.09344 0 0
2:53 am 02:53 Clear 75 23.9 53 11.7 46 46 SSE 14 22 29.59 1002 10 16.09344 0 0
3:53 am 03:53 Clear 74 23.3 53 11.7 48 48 SE 13 20 29.59 1002 10 16.09344 0 0
4:53 am 04:53 Clear 74 23.3 51 10.6 45 45 SSE 18 30 29.56 1001 10 16.09344 0 0
5:53 am 05:53 Clear 75 23.9 48 8.9 39 39 S 12 19 29.59 1002 10 16.09344 0 0
6:53 am 06:53 Sunny 73 22.8 49 9.4 43 43 SSE 13 20 29.59 1002 10 16.09344 0 0
7:53 am 07:53 Sunny 74 23.3 50 10 43 43 S 17 28 29.59 1002 10 16.09344 0 0
8:53 am 08:53 Sunny 77 25 48 8.9 36 36 SSE 20 31 29.59 1002 10 16.09344 0 0
9:53 am 09:53 Sunny 79 26.1 47 8.3 32 32 SSW 18 30 29.59 1002 10 16.09344 0 0
10:53 am 10:53 Sunny 81 27.2 47 8.3 30 30 SSW 24 39 29.56 1001 10 16.09344 0 0
11:53 am 11:53 Sunny 83 28.3 45 7.2 26 26 SSW 23 37 29.56 1001 10 16.09344 0 0
12:53 pm 12:53 Sunny 85 29.4 43 6.1 23 23 S 26 43 29.5 999 10 16.09344 0 0
1:53 pm 13:53 Sunny 86 30 41 5 20 20 S 26 43 29.47 998 10 16.09344 0 0
2:53 pm 14:53 Sunny 86 30 40 4.4 20 20 SSW 31 50 29.47 998 10 16.09344 0 0
3:53 pm 15:53 Sunny 85 29.4 41 5 21 21 SSW 24 39 29.47 998 10 16.09344 0 0
4:53 pm 16:53 Sunny 85 29.4 42 5.6 22 22 S 23 37 29.47 998 10 16.09344 0 0
5:53 pm 17:53 Sunny 83 28.3 44 6.7 25 25 SSW 17 28 29.44 997 10 16.09344 0 0
6:53 pm 18:53 Clear 80 26.7 44 6.7 28 28 SSW 22 35 29.47 998 10 16.09344 0 0
7:53 pm 19:53 Mostly Clear 78 25.6 41 5 27 27 SSW 15 24 29.47 998 10 16.09344 0 0
8:53 pm 20:53 Clear 74 23.3 39 3.9 28 28 S 15 24 29.5 999 10 16.09344 0 0
9:53 pm 21:53 Clear 71 21.7 33 0.6 25 25 SSW 21 33 29.5 999 10 16.09344 0 0
10:53 pm 22:53 Clear 69 20.6 37 2.8 31 31 S 13 20 29.53 1000 10 16.09344 0 0
11:53 pm 23:53 Clear 69 20.6 36 2.2 30 30 SW 10 17 29.53 1000 10 16.09344 0 0

Powered by AerisWeather